TimeCST,TemperatureF,Dew PointF,Humidity,Sea Level PressureIn,VisibilityMPH,Wind Direction,Wind SpeedMPH,Gust SpeedMPH,PrecipitationIn,Events,Conditions,WindDirDegrees,DateUTC
12:56 AM,43.0,30.9,62,30.13,10.0,NW,8.1,18.4,N/A,,Clear,320,2013-01-31 06:56:00
1:56 AM,43.0,30.0,60,30.14,10.0,NW,11.5,21.9,N/A,,Clear,320,2013-01-31 07:56:00
2:56 AM,41.0,30.9,67,30.16,10.0,Variable,5.8,-,N/A,,Clear,0,2013-01-31 08:56:00
3:56 AM,41.0,30.0,65,30.16,10.0,NW,4.6,-,N/A,,Clear,310,2013-01-31 09:56:00
4:56 AM,39.9,30.9,70,30.17,10.0,NW,4.6,-,N/A,,Clear,310,2013-01-31 10:56:00
5:56 AM,36.0,30.9,82,30.19,10.0,Calm,Calm,-,N/A,,Clear,0,2013-01-31 11:56:00
6:56 AM,34.0,30.9,89,30.21,10.0,Calm,Calm,-,N/A,,Clear,0,2013-01-31 12:56:00
7:56 AM,42.1,33.1,70,30.25,10.0,Calm,Calm,-,N/A,,Clear,0,2013-01-31 13:56:00
8:56 AM,46.9,32.0,56,30.27,10.0,NW,5.8,-,N/A,,Clear,320,2013-01-31 14:56:00
9:56 AM,50.0,28.0,43,30.27,10.0,NNW,11.5,17.3,N/A,,Clear,340,2013-01-31 15:56:00
10:56 AM,52.0,27.0,38,30.28,10.0,NNW,12.7,20.7,N/A,,Clear,330,2013-01-31 16:56:00
11:56 AM,55.0,26.1,33,30.27,10.0,NNW,8.1,18.4,N/A,,Clear,330,2013-01-31 17:56:00
12:56 PM,57.9,26.1,30,30.24,10.0,NNW,10.4,19.6,N/A,,Clear,330,2013-01-31 18:56:00
1:56 PM,59.0,25.0,27,30.22,10.0,North,10.4,16.1,N/A,,Partly Cloudy,360,2013-01-31 19:56:00
2:56 PM,57.9,26.1,30,30.22,10.0,NW,5.8,-,N/A,,Partly Cloudy,320,2013-01-31 20:56:00
3:56 PM,57.9,27.0,31,30.23,10.0,NNW,4.6,-,N/A,,Partly Cloudy,330,2013-01-31 21:56:00
4:56 PM,54.0,32.0,43,30.24,10.0,Calm,Calm,-,N/A,,Scattered Clouds,0,2013-01-31 22:56:00
5:56 PM,43.0,36.0,76,30.26,10.0,Calm,Calm,-,N/A,,Scattered Clouds,0,2013-01-31 23:56:00
6:56 PM,46.0,33.1,61,30.28,10.0,West,5.8,-,N/A,,Partly Cloudy,270,2013-02-01 00:56:00
7:56 PM,46.9,37.0,68,30.29,10.0,West,3.5,-,N/A,,Scattered Clouds,260,2013-02-01 01:56:00
8:56 PM,48.9,37.9,66,30.29,10.0,West,3.5,-,N/A,,Partly Cloudy,260,2013-02-01 02:56:00
9:56 PM,44.1,37.9,79,30.29,10.0,West,3.5,-,N/A,,Clear,270,2013-02-01 03:56:00
10:56 PM,46.9,37.9,71,30.32,10.0,West,3.5,-,N/A,,Clear,270,2013-02-01 04:56:00
11:56 PM,41.0,39.0,93,30.32,10.0,Calm,Calm,-,N/A,,Clear,0,2013-02-01 05:56:00